Home > Weather > Ndjamena > Past weeks

Flag for Chad Weather for the Past 2 Weeks in Ndjamena, Chad

Now
99 °F

Clear.


Feels Like: 95 °F
Forecast: 81 / 110 °F
Wind: 9 mph from Northeast

Location: Ndjamena

Current Time: Apr 29, 2016 at 7:31:10 PM

Latest Report: Apr 29, 2016 at 7:00 PM


Visibility: 4 mi

Pressure: 29.71 "Hg

Humidity: 17%

Dew Point: 46 °F

Location of NdjamenaLocation

Historic Weather in Ndjamena — Graph

°F

Ndjamena Temperature Yesterday

Maximum temperature yesterday: 109 °F (at 1:00 PM)
Minimum temperature yesterday: 84 °F (at 1:00 AM)
Average temperature yesterday: 96 °F

High & Low Weather Summary for the Past Weeks

 TemperatureHumidityPressure
High111 °F (Apr 23, 2:00 PM)62% (Apr 29, 6:00 AM)29.92 "Hg (Apr 29, 6:00 AM)
Low70 °F (Apr 20, 6:00 AM)2% (Apr 22, 1:00 PM)29.59 "Hg (Apr 24, 5:00 PM)
Average94 °F17%29.76 "Hg
* Reported Apr 14 6:00 PM — Apr 29 6:00 PM, Ndjamena, Weather by CustomWeather, © 2016

Note: Actual official high and low records may vary slightly from our data, if they occured in-between our weather recording intervals... More about our weather records

Advertising

Ndjamena Weather History for the Previous 24 Hours

Scroll right to see more
 ConditionsComfort  
Time TempWeatherWind HumidityBarometerVisibility
6:00 PM
Fri, Apr 29
106 °FClear.12 mph17%29.68 "Hg4 mi
5:00 PM108 °FClear.14 mph17%29.68 "Hg4 mi
4:00 PM109 °FClear.12 mph17%29.71 "Hg4 mi
3:00 PM109 °FClear.14 mph17%29.71 "Hg4 mi
2:00 PM109 °FClear.16 mph17%29.71 "Hg4 mi
1:00 PM109 °FClear.9 mph19%29.74 "Hg4 mi
12:00 PM108 °FClear.7 mph22%29.77 "Hg4 mi
11:00 AM106 °FClear.9 mph25%29.80 "Hg4 mi
10:00 AM102 °FClear.5 mph33%29.80 "Hg4 mi
9:00 AM95 °FClear.5 mph50%29.86 "Hg4 mi
8:00 AM91 °FClear.5 mph49%29.80 "Hg4 mi
7:00 AM84 °FClear.14 mph62%29.77 "Hg4 mi
6:00 AM82 °FClear.9 mph62%29.77 "Hg4 mi
5:00 AM82 °FClear.7 mph58%29.74 "Hg10 mi
4:00 AM84 °FClear.9 mph55%29.74 "Hg10 mi
3:00 AM84 °FClear.9 mph55%29.74 "Hg10 mi
2:00 AM86 °FClear.9 mph46%29.74 "Hg10 mi
1:00 AM88 °FClear.12 mph43%29.74 "Hg10 mi
12:00 AM88 °FClear.12 mph43%29.74 "Hg10 mi
11:00 PM
Thu, Apr 28
90 °FClear.9 mph41%29.74 "Hg10 mi
10:00 PM91 °FClear.12 mph41%29.74 "Hg10 mi
9:00 PM93 °FClear.12 mph36%29.71 "Hg5 mi
8:00 PM97 °FClear.12 mph20%29.71 "Hg4 mi
7:00 PM102 °FClear.5 mph26%29.65 "Hg4 mi
Weather by CustomWeather, © 2016

See weather overviewHow to use our weather pages